Presure
164 196 193 214 122 215 164 196 192 197 180 169 164 156 166 152 139 122 140 132 132 127 125 127 133 131 134 130 148 144 127 126 126 128 127 126 118 121 132 132 135 138 126
179 186 193 198 221 129 187 180 84 219 187 173 177 178 155 140 143 127 143 136 148 140 125 121 140 132 135 133 140 125 128 126 125 125 128 126 132 139 137 132 125 131 126
165 183 188 204 216 292 282 110 185 197 178 199 172 189 146 156 132 141 160 159 149 143 144 130 132 139 137 135 137 140 140 130 129 138 132 128 128 125 128 120 127 120 119
174 180 183 191 199 179 210 248 226 81 184 207 176 169 157 146 149 136 159 142 150 156 159 127 134 127 136 133 135 128 134 130 129 126 124 127 131 144 126 120 122 130 123
154 174 182 177 183 204 193 221 245 220 201 247 160 164 163 138 155 127 137 169 174 157 159 169 148 145 134 140 132 142 142 129 134 136 139 139 135 148 139 141 139 125 145
152 168 179 186 181 194 185 219 240 241 244 184 169 157 180 138 123 149 124 138 143 142 178 173 157 153 155 130 135 140 146 146 159 124 145 132 147 133 151 150 143 156 144
142 134 168 182 183 189 170 210 221 230 244 178 149 177 150 165 151 146 146 137 127 140 176 149 144 152 156 165 140 120 118 130 123 128 130 137 135 128 135 145 134 131 157
147 141 145 178 185 188 180 202 221 221 173 187 153 153 157 172 143 151 149 118 136 132 139 141 149 155 127 134 162 167 158 162 133 136 165 139 136 135 144 160 130 130 164
160 145 151 147 181 182 178 200 204 149 220 219 162 153 153 167 168 161 158 152 143 149 122 120 131 147 150 156 157 162 134 161 144 149 138 161 161 129 127 144 134 123 124
154 138 138 146 145 179 188 193 195 210 200 206 149 156 122 153 169 173 169 163 138 143 127 149 142 151 127 133 143 157 129 121 125 125 124 133 121 128 131 141 132 128 143
180 173 148 166 149 168 165 191 192 161 167 197 165 165 139 165 157 157 160 188 155 152 161 147 146 144 153 131 133 147 151 141 148 149 156 116 154 145 119 153 142 183 168
196 186 145 137 143 141 174 174 186 190 188 195 170 181 169 165 153 154 153 140 150 164 161 161 138 166 159 165 188 168 163 160 162 157 162 146 167 156 126 139 155 170 128
248 173 182 140 143 148 204 142 160 184 182 149 177 151 177 172 176 191 175 173 154 169 154 148 167 175 172 174 155 140 153 160 164 131 128 130 139 139 148 153 163 169 171
246 179 169 163 141 151 188 185 141 148 187 179 182 175 161 175 171 170 171 176 184 181 153 159 159 144 144 158 159 175 154 132 133 152 156 151 174 177 154 161 166 141 150
248 244 213 218 167 163 155 142 195 218 151 169 173 185 163 182 182 174 176 177 167 185 182 175 171 167 174 168 174 153 164 160 157 146 156 159 160 157 161 170 159 165 169
243 267 237 225 241 170 212 177 189 135 134 180 152 164 176 157 160 186 188 167 174 154 151 175 178 180 176 178 176 166 167 168 167 167 161 178 168 149 148 145 149 147 149
217 269 246 219 239 238 234 239 190 183 162 204 191 160 184 175 191 158 160 188 168 186 185 164 161 153 159 165 171 163 165 154 182 167 176 172 158 142 165 168 171 142 142
207 228 237 234 226 228 233 241 232 227 251 231 197 203 188 177 187 182 158 172 174 170 169 141 140 150 154 155 163 164 164 146 162 159 153 174 168 164 168 172 147 152 153
214 213 212 227 246 250 231 265 260 259 252 241 208 198 230 196 203 190 186 182 189 159 157 171 175 178 181 162 168 171 154 160 161 150 170 159 141 140 142 142 140 156 170
202 206 202 212 216 223 230 236 236 235 255 273 271 252 230 227 187 184 194 202 209 191 196 195 181 161 158 164 167 157 185 172 170 179 184 179 172 168 174 181 173 153 160
193 206 204 200 208 216 211 213 216 227 219 233 241 255 256 253 239 231 252 248 253 200 201 204 207 204 205 201 208 207 202 199 195 199 199 196 208 167 198 191 196 197 193
192 205 209 195 207 206 206 192 203 207 207 202 204 238 243 225 234 245 278 282 268 255 243 241 239 232 266 243 218 215 218 197 194 206 198 190 191 199 200 199 200 218 200
189 200 209 213 211 197 218 208 210 198 226 229 210 202 208 265 238 241 261 264 265 266 268 271 271 276 284 281 317 306 290 268 270 285 274 258 251 250 252 251 253 253 253
205 184 194 195 214 210 213 227 210 194 201 211 190 239 198 251 250 248 243 245 249 249 246 270 258 257 257 318 355 340 335 337 337 368 344 262 253 247 242 242 244 233 227
207 193 209 204 201 201 225 211 204 206 204 195 185 237 232 233 234 234 232 230 237 230 245 259 246 242 241 255 257 276 288 319 329 364 384 381 338 330 317 310 311 315 294
200 199 210 197 212 198 210 204 191 207 160 244 230 229 228 230 227 222 219 230 228 241 245 241 262 233 231 230 238 236 243 250 254 262 303 347 364 380 348 337 310 307 312
Wind_Speed
13 9 8 9 19 30 24 35 38 37 39 46 49 50 47 48 37 23 39 36 36 34 29 29 28 26 25 28 20 19 26 22 19 17 15 14 13 9 10 8 6 5 3
10 11 11 15 11 15 29 32 8 38 42 46 45 46 52 43 39 26 39 36 37 38 33 27 32 30 30 29 23 25 24 22 18 17 16 13 11 10 9 8 6 7 6
14 14 14 11 6 12 18 14 35 39 46 45 49 51 50 52 31 34 42 42 40 39 38 32 32 31 29 27 26 24 22 22 19 16 17 17 15 12 10 9 10 8 10
21 17 17 14 13 17 15 18 33 17 47 49 52 56 58 41 42 29 45 35 40 39 38 29 34 26 29 25 25 23 23 21 21 21 18 18 15 19 13 12 14 16 17
17 21 20 19 21 17 19 17 24 41 46 45 53 56 59 33 47 24 31 45 43 42 42 39 39 36 30 30 25 29 29 21 23 25 22 21 21 25 25 26 23 23 24
21 22 23 22 24 20 27 14 20 34 40 54 54 53 57 35 23 45 29 33 32 28 44 45 39 38 39 26 26 27 29 28 30 23 28 25 27 26 30 32 28 35 26
24 20 25 26 29 26 21 17 20 28 37 53 48 55 53 55 51 47 46 37 28 29 42 34 33 38 41 40 35 28 27 28 29 28 28 29 27 28 31 30 26 38 40
30 25 23 30 31 30 26 27 16 28 31 51 54 52 51 53 49 53 54 30 40 35 37 38 41 43 33 33 42 43 37 38 28 30 39 31 32 25 29 40 32 34 45
43 32 31 25 36 35 29 31 27 26 41 50 56 53 54 53 55 58 60 56 49 52 36 32 39 42 43 44 45 47 29 46 31 33 32 47 47 36 32 40 39 42 42
45 33 30 32 29 39 37 35 42 32 43 49 29 57 35 58 56 58 61 63 49 52 38 53 46 50 37 41 44 48 25 27 33 32 38 35 42 39 40 41 46 47 54
62 59 42 44 34 43 37 42 48 42 41 55 46 63 44 64 60 60 62 57 63 60 61 53 49 51 54 41 41 48 48 41 47 47 52 42 50 50 41 49 49 59 61
70 63 42 37 37 33 47 45 53 55 57 62 53 62 62 62 54 61 61 44 57 64 63 61 50 63 60 60 57 62 59 58 56 54 56 52 59 56 51 53 54 57 51
50 66 64 46 43 43 54 36 40 59 61 39 62 39 62 62 63 60 68 67 65 63 60 49 64 65 65 65 56 49 54 59 59 53 51 52 56 57 56 57 59 60 60
42 73 64 57 48 49 63 60 39 42 64 62 65 67 52 68 65 63 61 66 65 64 59 67 62 56 53 63 63 65 58 55 54 60 58 56 67 68 60 65 64 62 66
33 40 56 56 61 60 55 46 69 65 49 60 59 70 51 72 75 70 69 68 63 70 72 70 67 66 71 69 70 62 64 62 62 60 66 66 65 62 66 69 67 69 72
25 33 38 48 39 69 61 72 68 43 42 69 54 59 67 54 56 75 75 62 72 60 56 73 73 75 75 76 74 67 69 68 68 69 68 74 74 67 64 66 68 73 73
30 27 33 43 34 35 44 41 75 61 59 76 75 63 73 71 76 61 62 80 66 78 78 67 63 62 63 66 74 67 71 69 82 72 80 77 72 71 74 76 77 76 78
31 21 27 36 43 41 41 39 47 52 45 55 76 78 78 74 79 79 68 72 76 72 73 59 57 64 67 67 73 75 74 69 72 71 72 81 78 78 79 78 82 83 85
33 32 33 28 27 23 32 20 28 37 43 48 65 71 66 80 83 84 85 82 84 73 73 80 82 84 86 77 82 83 73 78 78 76 86 82 79 80 82 84 84 90 93
47 43 42 36 33 32 26 26 28 32 34 37 41 49 60 63 76 76 79 84 90 94 95 92 88 79 79 81 83 81 94 88 86 92 94 91 91 92 93 94 95 97 98
50 54 45 43 41 33 35 39 36 33 34 37 43 49 54 58 63 68 65 71 72 87 87 92 93 91 92 94 100 102 100 98 94 100 100 96 107 100 104 97 100 102 101
36 46 51 41 49 45 40 48 39 38 41 48 50 47 48 56 60 62 50 52 63 72 78 82 86 91 78 91 92 92 95 98 98 100 101 97 98 104 103 105 106 110 107
39 42 54 56 48 30 42 40 42 44 44 45 52 52 51 40 48 51 48 49 50 53 56 59 62 66 65 67 57 67 77 87 85 88 90 93 94 95 94 95 96 97 99
62 25 30 35 56 44 35 42 41 48 47 49 53 39 52 38 39 39 42 44 46 49 52 50 56 57 58 29 26 27 26 25 28 38 42 91 91 92 93 95 97 98 97
70 36 63 56 48 44 61 45 42 50 50 57 48 35 35 38 39 37 39 42 42 46 46 43 47 48 47 40 36 28 25 22 23 23 25 33 42 43 44 51 53 50 62
49 43 64 44 63 40 53 51 46 52 44 46 45 38 37 39 40 38 37 41 43 41 39 41 35 45 45 44 39 38 33 29 26 25 21 16 15 19 33 35 42 41 42
Wind_Direction
248 285 241 223 226 215 208 216 215 209 197 191 195 193 188 187 193 194 184 181 181 186 190 186 180 178 171 171 157 159 171 176 174 167 163 169 198 183 160 164 172 183 198
258 268 267 235 228 218 216 211 287 212 200 191 196 194 193 194 196 212 193 192 190 189 196 202 185 191 184 186 181 193 184 182 191 194 191 194 198 199 204 208 227 237 264
242 264 259 288 280 222 224 240 216 209 197 202 195 193 202 195 204 208 193 196 197 197 195 202 204 198 199 195 193 191 197 195 203 205 207 211 215 225 230 255 264 290 293
247 247 249 256 258 235 231 226 215 280 202 203 195 199 204 208 209 221 201 211 206 204 206 213 209 220 213 210 208 207 210 217 212 219 245 248 245 243 254 264 276 260 277
234 244 243 244 238 265 227 242 225 210 206 211 203 203 205 218 211 216 238 204 204 209 212 219 216 219 222 221 228 217 215 226 227 234 234 242 248 259 249 253 258 265 272
223 240 242 240 240 243 221 261 240 222 214 197 201 207 204 221 223 226 216 244 234 241 214 216 224 230 231 226 233 234 233 234 236 249 243 239 250 251 271 274 270 281 277
219 213 234 236 236 241 214 239 234 220 213 200 209 205 215 212 221 230 234 240 229 246 220 241 237 240 243 239 238 248 263 240 253 246 253 253 256 261 268 270 251 259 282
228 223 222 232 234 240 227 228 234 221 207 203 214 215 214 215 225 227 231 226 238 238 245 247 247 239 240 246 248 249 250 251 252 259 261 262 266 269 273 271 264 268 278
231 229 228 224 228 233 235 230 224 208 211 207 214 220 220 219 222 225 228 231 234 239 242 249 248 250 250 249 251 250 253 255 264 260 255 259 262 258 266 272 279 268 273
227 235 237 229 222 225 229 225 223 224 213 211 237 225 217 224 221 225 227 229 236 238 247 243 246 247 255 258 256 250 243 249 252 248 251 258 264 261 262 274 268 267 284
229 230 234 234 233 230 232 228 225 216 212 214 223 224 225 224 228 231 233 234 237 240 238 245 249 252 252 259 258 262 261 263 264 267 270 266 271 271 285 279 276 282 287
224 229 235 238 235 234 228 230 226 227 223 220 231 222 226 228 230 235 239 238 243 241 243 244 252 248 250 253 253 254 258 264 264 266 268 270 276 271 270 275 283 286 282
238 234 233 234 235 236 227 235 241 225 228 225 232 231 233 235 233 236 236 239 248 243 251 249 246 246 249 250 251 256 264 265 266 257 261 264 264 266 277 283 285 284 283
238 228 235 236 235 238 234 230 235 237 229 233 231 235 236 240 241 242 242 243 246 246 255 250 250 258 260 259 260 257 259 255 258 269 273 274 276 276 277 281 281 281 282
241 238 236 239 240 241 238 237 234 236 240 237 243 237 238 242 245 246 245 245 247 247 249 249 252 254 253 257 258 258 262 264 267 266 272 273 274 277 280 277 278 281 281
262 252 242 240 244 244 242 245 242 241 243 243 244 244 245 239 242 248 247 249 249 246 249 253 254 254 256 257 259 266 267 268 269 269 270 272 273 275 269 272 272 274 275
249 246 251 240 250 248 241 247 239 240 245 240 244 244 247 248 248 245 248 252 254 251 250 254 254 251 256 264 264 265 269 262 268 270 273 273 267 271 275 276 277 277 279
249 263 253 257 249 249 248 250 244 243 252 242 244 244 248 249 251 252 252 252 256 257 259 260 262 256 256 257 262 263 264 257 264 262 260 272 270 271 276 276 272 274 275
251 249 251 268 262 260 253 274 269 265 261 255 248 246 250 249 250 252 254 255 254 259 259 258 260 261 263 264 263 262 259 262 263 265 269 266 272 274 274 275 278 270 276
253 244 244 253 259 259 259 262 264 265 282 276 270 262 255 257 253 254 256 256 256 256 258 259 260 261 262 262 262 265 265 265 266 267 267 266 266 267 268 271 269 270 270
252 254 251 250 251 253 255 263 261 267 258 288 278 269 267 265 263 260 261 259 259 263 264 265 264 264 265 265 267 268 268 269 270 271 271 271 275 265 275 276 277 276 275
247 253 262 258 256 256 256 251 260 262 260 256 257 263 275 273 272 269 272 273 269 268 265 265 264 264 269 265 268 269 270 270 270 269 270 271 272 272 272 273 273 272 274
254 262 261 264 265 259 272 267 269 266 284 280 269 266 274 277 275 274 277 278 280 281 282 281 282 284 285 277 282 274 271 267 268 266 267 268 268 268 269 270 271 272 272
252 250 263 266 265 278 280 289 271 268 274 283 261 281 270 286 280 279 280 282 283 283 282 281 282 284 287 318 310 303 297 298 294 274 266 264 264 266 268 269 270 271 273
248 261 261 266 272 276 278 280 280 280 285 272 266 284 283 281 280 280 281 282 283 283 284 282 281 284 286 293 297 315 332 332 320 321 297 282 262 264 265 268 272 274 273
257 263 263 267 273 266 278 275 270 287 258 288 282 280 278 276 277 278 281 287 286 286 285 285 287 281 283 287 291 293 299 305 314 324 343 333 319 300 271 270 270 276 280